Regional Weather Roundup
Issued by NWS Newport/Morehead, NC

Current Version | Previous Version | Graphics & Text | Print | Product List | Glossary Off
Versions: 1 2 3 4 5 6 7 8 9 10 11 12 13 14 15 16 17 18 19 20 21 22 23 24 25 26 27 28 29 30 31 32 33 34 35 36 37 38 39 40 41 42 43 44 45 46 47 48 49 50

000
ASUS42 KMHX 301710
RWRMHX
WEATHER ROUNDUP FOR EASTERN NORTH CAROLINA
NATIONAL WEATHER SERVICE NEWPORT/MOREHEAD CITY NC
100 PM EDT WED JUL 30 2014

NOTE: "FAIR" INDICATES FEW OR NO CLOUDS BELOW 12,000 FEET
WITH NO SIGNIFICANT WEATHER AND/OR OBSTRUCTIONS TO VISIBILITY

NCZ015>017-031-032-045>047-102-103-301800-
NORTH COAST

CITY           SKY/WX    TMP DP  RH WIND       PRES   REMARKS
EDENTON        FAIR      79  62  57 CALM      30.08F
ELIZABETH CITY FAIR      79  60  52 VRB3      30.08F
KITTY HAWK     FAIR      78  60  52 N7        30.07F
MANTEO         NOT AVBL

$$

NCZ045>047-081-094-103-104-301800-
CENTRAL COAST

CITY           SKY/WX    TMP DP  RH WIND       PRES   REMARKS
FRISCO         FAIR      82  63  52 NE10G17   30.06F
SWANQUARTER      N/A     81 N/A N/A NE7       30.03S

$$

NCZ095-097-098-100-101-301800-
SOUTHERN COAST

CITY           SKY/WX    TMP DP  RH WIND       PRES   REMARKS
BEAUFORT       FAIR      82  65  56 E9        30.06S
CEDAR ISLAND     N/A     81 N/A N/A NE7G15    30.12S
JACKSONVILLE   FAIR      83  60  45 E7        30.05F
NEWPORT        NOT AVBL
PINEY ISLAND   FAIR      81  65  58 E13       30.06F
WILMINGTON     FAIR      82  64  54 E10       30.05S


$$

NCZ011>013-027>030-043-044-078>080-089-090>093-098-301800-
COASTAL PLAIN

CITY           SKY/WX    TMP DP  RH WIND       PRES   REMARKS
AHOSKIE        FAIR      76  58  54 CALM      30.09F
CLINTON        FAIR      83  66  56 E6        30.06F
ELIZABETHTOWN  FAIR      83  61  47 NE5       30.05F
GOLDSBORO      FAIR      81  67  61 CALM      30.05F
GREENVILLE     FAIR      81  63  54 SE3       30.09F
HAVELOCK       FAIR      82  63  52 NE12      30.07F
KENANSVILLE    FAIR      82  59  46 E5        30.07F
KINSTON        FAIR      82  63  51 NE9       30.08F
NEW BERN       FAIR      84  61  45 NE7       30.07F
RICHLANDS      FAIR      82  59  44 N5        30.06S
ROANOKE RAPIDS NOT AVBL
ROCKY MOUNT    FAIR      79  61  53 NE6       30.09F
WASHINGTON     FAIR      78  62  57 SE3       30.07F
WHITEVILLE     NOT AVBL

$$

AMZ130-135-150-152-154-156-158-170-250-252-270-ANZ085-086-088-633-658-670-301800-
MARINE OBSERVATIONS

STATION/POSITION TIME  TEMP    WIND        PRES    WAVE   SWELL
                       AIR SEA DIR/SP/G            HT/PER HT/PER
                 (UTC) (F)     (DEG/KT/KT) (MB)    (FT/S) (FT/S)
CHESAPEAKE LIGHT NOT AVBL
BUOY 44014       1700   74 78  350/ 10/ 12 1018.1    2/ 8   2/ 8
DUCK             1700   74 76   10/  9/ 11 1018.0
2E DUCK          1700                        N/A     2/ 8
OREGON INLET     1700   76 77   30/  8/ 11 1018.5
BUOY 44095       1700      78                N/A     3/ 9
20E OREGON INLET NOT AVBL
HATTERAS CG      1700   78 79   40/ 10/ 12 1018.4
DIAMOND BUOY     1700          VRB 14/ 16  1017.2    4/ 7   3/ 7
CAPE LOOKOUT     1600   78      50/ 13/ 15 1017.7
BEAUFORT LAB     1700   80 81   70/  9/ 12 1017.3
30 SE NEW RIVER  1600   79 81   50/ 16/ 17 1017.7
5 SE WRIGHTSVILL 1600   76 81   70/ 14/ 14   N/A
BUOY 41002       1603   78 81  180/ 14/ 16 1015.6    4/ 7   3/ 7
BUOY 41004       1700   82 84   70/ 12/ 14 1015.9    2/10   2/10

$$


USA.gov is the U.S. government's official web portal to all federal, state and local government web resources and services.